Weather History for Laramie, WY

Change the Weather History Date:

Tuesday, January 22, 2013

  Actual Average Record
Temperature  
Mean Temperature 32 °F 22 °F  
Max Temperature 43 °F 33 °F 55 °F (1981)
Min Temperature 21 °F 10 °F -31 °F (1962)
Degree Days  
Heating Degree Days 33 43  
Month to date heating degree days 1133 947  
Since 1 July heating degree days 4343 4620  
Cooling Degree Days 0 0  
Month to date cooling degree days 0 0  
Year to date cooling degree days 0 0  
Moisture  
Dew Point 8 °F    
Average Humidity 36    
Maximum Humidity 50    
Minimum Humidity 22    
Precipitation  
Precipitation 0.00 in 0.00 in 0.14 in (1979)
Month to date precipitation T 0.18  
Year to date precipitation T 0.18  
Sea Level Pressure  
Sea Level Pressure 30.13 in    
Wind  
Wind Speed 16 mph (West)    
Max Wind Speed 29 mph    
Max Gust Speed 37 mph    
Visibility 10 miles    
Events      
T = Trace of Precipitation, MM = Missing Value Source: NWS Daily Summary

Daily Weather History Graph

Daily Weather History Graph

Search for Another Location

Airport:

Trip Planner

Search our weather history database for the weather conditions in past years. The results will help you decide how hot, cold, wet, or windy it might be!

Date:

Astronomy

Jan. 22, 2013 Rise Set
Actual Time 7:22 AM MST 5:07 PM MST
Civil Twilight 6:52 AM MST 5:37 PM MST
Nautical Twilight 6:18 AM MST 6:10 PM MST
Astronomical Twilight 5:45 AM MST 6:43 PM MST
Moon 1:31 PM MST (1/22) 3:46 AM MST (1/22)
Length of Visible Light 10h 44m
Length of Day
9h 44m
Waxing Gibbous, 83% of the Moon is Illuminated
Jan 22
Waxing Gibbous
Jan 26
Full
Feb 3
Last Quarter
Feb 10
New
Feb 17
First Quarter

Hourly Weather History & Observations

Time (MST) Temp. Windchill Dew Point Humidity Pressure Visibility Wind Dir Wind Speed Gust Speed Precip Events Conditions
12:53 AM 33.1 °F 23.4 °F 7.0 °F 34% 30.03 in 10.0 mi West 13.8 mph 31.1 mph N/A   Clear
1:53 AM 33.1 °F 20.9 °F 6.1 °F 32% 30.04 in 10.0 mi WSW 21.9 mph 33.4 mph N/A   Clear
2:53 AM 30.9 °F 17.5 °F 8.1 °F 38% 30.04 in 10.0 mi WSW 24.2 mph - N/A   Clear
3:53 AM 28.0 °F 15.7 °F 6.1 °F 39% 30.08 in 10.0 mi South 17.3 mph - N/A   Clear
5:53 AM 26.1 °F 13.1 °F 7.0 °F 44% 30.13 in 10.0 mi SSW 17.3 mph 20.7 mph N/A   Clear
6:53 AM 25.0 °F 14.8 °F 3.0 °F 39% 30.17 in 10.0 mi WSW 10.4 mph - N/A   Clear
7:53 AM 27.0 °F 15.2 °F 3.0 °F 36% 30.13 in 10.0 mi West 15.0 mph 20.7 mph N/A   Clear
8:53 AM 30.9 °F 19.1 °F 8.1 °F 38% 30.13 in 10.0 mi West 18.4 mph - N/A   Clear
9:53 AM 35.1 °F 24.5 °F 12.0 °F 39% 30.12 in 10.0 mi West 18.4 mph - N/A   Clear
10:53 AM 37.9 °F 27.1 °F 12.0 °F 35% 30.12 in 10.0 mi West 23.0 mph - N/A   Clear
11:53 AM 39.9 °F 30.5 °F 17.1 °F 40% 30.09 in 10.0 mi West 19.6 mph - N/A   Clear
12:53 PM 42.1 °F 33.1 °F 16.0 °F 35% 30.04 in 10.0 mi West 20.7 mph - N/A   Clear
1:53 PM 42.1 °F 33.1 °F 14.0 °F 32% 30.05 in 10.0 mi West 20.7 mph - N/A   Clear
2:53 PM 42.1 °F 34.2 °F 15.1 °F 34% 30.06 in 10.0 mi West 16.1 mph - N/A   Clear
3:53 PM 39.9 °F 30.8 °F 12.9 °F 33% 30.11 in 10.0 mi West 18.4 mph 27.6 mph N/A   Clear
4:53 PM 35.1 °F 23.0 °F 12.0 °F 39% 30.15 in 10.0 mi West 24.2 mph - N/A   Clear
5:53 PM 33.1 °F 21.5 °F 10.0 °F 38% 30.22 in 10.0 mi WNW 19.6 mph - N/A   Clear
6:53 PM 25.0 °F 14.2 °F 8.1 °F 49% 30.27 in 10.0 mi West 11.5 mph - N/A   Clear
7:53 PM 32.0 °F 20.1 °F 7.0 °F 35% 30.21 in 10.0 mi West 19.6 mph - N/A   Clear
8:53 PM 24.1 °F 14.4 °F 5.0 °F 44% 30.24 in 10.0 mi SE 9.2 mph - N/A   Clear
9:53 PM 24.1 °F 18.2 °F 3.9 °F 42% 30.22 in 10.0 mi NE 4.6 mph - N/A   Clear
10:53 PM 33.1 °F - -2.0 °F 22% 30.15 in 10.0 mi Calm Calm - N/A   Clear
11:53 PM 32.0 °F 25.6 °F -2.0 °F 23% 30.15 in 10.0 mi WNW 6.9 mph - N/A   Clear